Previsão horária em Abaújszántó

Hoje, 12 Abril, Segunda-feira

Tempo Temperatura Precipitação Vento Pressão Humidade
00:00 +11°C° 0 mm 1 m/s 746 mmHg 84%
01:00 +10°C° 0 mm 2 m/s 746 mmHg 82%
02:00 +10°C° 0 mm 2 m/s 746 mmHg 81%
03:00 +10°C° 0 mm 2 m/s 746 mmHg 79%
04:00 +9°C° 0 mm 2 m/s 746 mmHg 78%
05:00 +10°C° 0 mm 2 m/s 746 mmHg 76%
06:00 +10°C° 0 mm 3 m/s 746 mmHg 74%
07:00 +10°C° 0 mm 3 m/s 746 mmHg 72%
08:00 +11°C° 0 mm 3 m/s 746 mmHg 69%
09:00 +12°C° 0 mm 3 m/s 746 mmHg 66%
10:00 +13°C° 0 mm 3 m/s 746 mmHg 63%
11:00 +14°C° 0 mm 3 m/s 746 mmHg 62%
12:00 +14°C° 0 mm 3 m/s 745 mmHg 61%
13:00 +16°C° 0 mm 3 m/s 745 mmHg 60%
14:00 +17°C° 0 mm 3 m/s 745 mmHg 58%
15:00 +17°C° 0 mm 2 m/s 745 mmHg 60%
16:00 +17°C° 0 mm 2 m/s 744 mmHg 61%
17:00 +16°C° 0 mm 1 m/s 744 mmHg 64%
18:00 +15°C° 0 mm 1 m/s 744 mmHg 67%
19:00 +14°C° 0 mm 1 m/s 744 mmHg 71%
20:00 +14°C° 0 mm 1 m/s 744 mmHg 73%
21:00 +13°C° 0 mm 1 m/s 744 mmHg 75%
22:00 +13°C° 0 mm 2 m/s 744 mmHg 78%
23:00 +12°C° 0.1 mm 2 m/s 744 mmHg 81%

Amanhã, 13 Abril, Terça-feira

Tempo Temperatura Precipitação Vento Pressão Humidade
00:00 +12°C° 0.1 mm 2 m/s 744 mmHg 84%
01:00 +12°C° 0.1 mm 2 m/s 744 mmHg 87%
02:00 +10°C° 0.1 mm 2 m/s 744 mmHg 88%
03:00 +10°C° 0.1 mm 2 m/s 744 mmHg 90%
04:00 +9°C° 0.1 mm 2 m/s 743 mmHg 91%
05:00 +10°C° 0.1 mm 3 m/s 743 mmHg 89%
06:00 +10°C° 0.1 mm 3 m/s 743 mmHg 87%
07:00 +10°C° 0.1 mm 3 m/s 743 mmHg 85%
08:00 +10°C° 0.3 mm 4 m/s 744 mmHg 83%
09:00 +8°C° 0.3 mm 5 m/s 744 mmHg 81%
10:00 +8°C° 0.3 mm 5 m/s 744 mmHg 79%
11:00 +7°C° 0.5 mm 5 m/s 744 mmHg 80%
12:00 +6°C° 0.5 mm 5 m/s 744 mmHg 81%
13:00 +6°C° 0.5 mm 5 m/s 744 mmHg 81%
14:00 +5°C° 0.6 mm 5 m/s 744 mmHg 83%
15:00 +3°C° 0.6 mm 5 m/s 743 mmHg 84%
16:00 +3°C° 0.6 mm 5 m/s 743 mmHg 86%
17:00 +2°C° 1.2 mm 6 m/s 743 mmHg 87%
18:00 +2°C° 1.2 mm 6 m/s 743 mmHg 88%
19:00 +1°C° 1.2 mm 6 m/s 743 mmHg 89%
20:00 +1°C° 1.2 mm 6 m/s 743 mmHg 89%
21:00 +1°C° 1.2 mm 6 m/s 743 mmHg 88%
22:00 +1°C° 1.2 mm 6 m/s 743 mmHg 88%
23:00 +1°C° 0.6 mm 6 m/s 743 mmHg 88%

Depois de amanhã, 14 Abril, Quarta-feira

Tempo Temperatura Precipitação Vento Pressão Humidade
00:00 +1°C° 0.6 mm 6 m/s 742 mmHg 88%
01:00 +1°C° 0.6 mm 6 m/s 742 mmHg 88%
02:00 +1°C° 0.4 mm 6 m/s 742 mmHg 88%
03:00 +1°C° 0.4 mm 6 m/s 742 mmHg 88%
04:00 +1°C° 0.4 mm 6 m/s 742 mmHg 88%
05:00 +1°C° 0.1 mm 6 m/s 742 mmHg 87%
06:00 +1°C° 0.1 mm 6 m/s 742 mmHg 87%
07:00 -1°C° 0.1 mm 6 m/s 742 mmHg 86%
08:00 -1°C° 0.5 mm 6 m/s 742 mmHg 87%
09:00 -1°C° 0.5 mm 6 m/s 742 mmHg 88%
10:00 -1°C° 0.5 mm 6 m/s 742 mmHg 89%
11:00 -1°C° 0.5 mm 6 m/s 742 mmHg 88%
12:00 +1°C° 0.5 mm 6 m/s 742 mmHg 88%
13:00 +1°C° 0.5 mm 6 m/s 742 mmHg 87%
14:00 +1°C° 0.6 mm 6 m/s 743 mmHg 88%
15:00 +1°C° 0.6 mm 6 m/s 743 mmHg 89%
16:00 +1°C° 0.6 mm 5 m/s 743 mmHg 90%
17:00 0°C° 0.5 mm 5 m/s 743 mmHg 91%
18:00 0°C° 0.5 mm 5 m/s 743 mmHg 92%
19:00 0°C° 0.5 mm 4 m/s 743 mmHg 93%
20:00 0°C° 0.5 mm 4 m/s 743 mmHg 94%
21:00 0°C° 0.5 mm 4 m/s 743 mmHg 94%
22:00 0°C° 0.5 mm 4 m/s 743 mmHg 95%
23:00 0°C° 0.6 mm 4 m/s 743 mmHg 96%

15 Abril, Quinta-feira

Tempo Temperatura Precipitação Vento Pressão Humidade
00:00 +1°C° 0.6 mm 3 m/s 743 mmHg 96%
01:00 +1°C° 0.6 mm 3 m/s 743 mmHg 97%
02:00 +1°C° 0.5 mm 3 m/s 743 mmHg 97%
03:00 +1°C° 0.5 mm 3 m/s 743 mmHg 98%
04:00 +1°C° 0.5 mm 3 m/s 743 mmHg 98%
05:00 +2°C° 0.5 mm 2 m/s 743 mmHg 98%
06:00 +2°C° 0.5 mm 2 m/s 743 mmHg 98%
07:00 +2°C° 0.5 mm 2 m/s 743 mmHg 98%
08:00 +2°C° 0.4 mm 2 m/s 744 mmHg 98%
09:00 +3°C° 0.4 mm 2 m/s 744 mmHg 98%
10:00 +3°C° 0.4 mm 2 m/s 744 mmHg 98%
11:00 +3°C° 0.3 mm 2 m/s 744 mmHg 97%
12:00 +3°C° 0.3 mm 2 m/s 744 mmHg 96%
13:00 +3°C° 0.3 mm 2 m/s 745 mmHg 96%
14:00 +4°C° 0.3 mm 1 m/s 745 mmHg 96%
15:00 +4°C° 0.3 mm 1 m/s 745 mmHg 97%
16:00 +4°C° 0.3 mm 1 m/s 745 mmHg 97%
17:00 +4°C° 0.2 mm 1 m/s 745 mmHg 97%
18:00 +4°C° 0.2 mm 1 m/s 745 mmHg 98%
19:00 +4°C° 0.2 mm 1 m/s 745 mmHg 98%
20:00 +4°C° 0.1 mm 1 m/s 745 mmHg 98%
21:00 +4°C° 0.1 mm 1 m/s 745 mmHg 98%
22:00 +4°C° 0.1 mm 1 m/s 745 mmHg 97%
23:00 +4°C° 0 mm 1 m/s 745 mmHg 97%

16 Abril, Sexta-feira

Tempo Temperatura Precipitação Vento Pressão Humidade
00:00 +3°C° 0 mm 1 m/s 745 mmHg 96%
01:00 +3°C° 0 mm 1 m/s 745 mmHg 96%
02:00 +3°C° 0 mm 1 m/s 745 mmHg 96%
03:00 +3°C° 0 mm 1 m/s 745 mmHg 96%
04:00 +3°C° 0 mm 1 m/s 745 mmHg 96%
05:00 +3°C° 0.1 mm 1 m/s 746 mmHg 97%
06:00 +3°C° 0.1 mm 1 m/s 746 mmHg 97%
07:00 +3°C° 0.1 mm 1 m/s 746 mmHg 98%
08:00 +3°C° 0 mm 2 m/s 746 mmHg 95%
09:00 +4°C° 0 mm 2 m/s 747 mmHg 93%
10:00 +5°C° 0 mm 2 m/s 747 mmHg 91%
11:00 +6°C° 0 mm 2 m/s 747 mmHg 85%
12:00 +7°C° 0 mm 2 m/s 747 mmHg 80%
13:00 +9°C° 0 mm 3 m/s 747 mmHg 74%
14:00 +8°C° 0 mm 3 m/s 747 mmHg 76%
15:00 +8°C° 0 mm 3 m/s 747 mmHg 77%
16:00 +8°C° 0 mm 3 m/s 747 mmHg 78%
17:00 +7°C° 0 mm 3 m/s 748 mmHg 81%
18:00 +5°C° 0 mm 3 m/s 748 mmHg 85%
19:00 +3°C° 0 mm 3 m/s 748 mmHg 88%
20:00 +3°C° 0 mm 3 m/s 749 mmHg 89%
21:00 +3°C° 0 mm 3 m/s 749 mmHg 89%
22:00 +2°C° 0 mm 3 m/s 749 mmHg 90%
23:00 +2°C° 0 mm 3 m/s 749 mmHg 91%

17 Abril, Sábado

Tempo Temperatura Precipitação Vento Pressão Humidade
00:00 +2°C° 0 mm 3 m/s 749 mmHg 92%
01:00 +2°C° 0 mm 3 m/s 749 mmHg 93%
02:00 +2°C° 0 mm 3 m/s 749 mmHg 93%
03:00 +2°C° 0 mm 3 m/s 749 mmHg 92%
04:00 +3°C° 0 mm 2 m/s 749 mmHg 92%
05:00 +3°C° 0 mm 3 m/s 749 mmHg 91%
06:00 +4°C° 0 mm 3 m/s 749 mmHg 89%
07:00 +4°C° 0 mm 4 m/s 749 mmHg 88%
08:00 +5°C° 0 mm 4 m/s 749 mmHg 86%
09:00 +6°C° 0 mm 5 m/s 749 mmHg 84%
10:00 +7°C° 0 mm 5 m/s 749 mmHg 82%
11:00 +8°C° 0 mm 5 m/s 749 mmHg 80%
12:00 +9°C° 0 mm 5 m/s 748 mmHg 77%
13:00 +10°C° 0 mm 6 m/s 748 mmHg 74%
14:00 +10°C° 0 mm 6 m/s 748 mmHg 76%
15:00 +9°C° 0 mm 6 m/s 748 mmHg 78%
16:00 +9°C° 0 mm 6 m/s 748 mmHg 80%
17:00 +8°C° 0 mm 5 m/s 748 mmHg 83%
18:00 +7°C° 0 mm 5 m/s 749 mmHg 86%
19:00 +6°C° 0 mm 5 m/s 749 mmHg 89%
20:00 +5°C° 0 mm 5 m/s 749 mmHg 90%
21:00 +5°C° 0 mm 4 m/s 749 mmHg 91%
22:00 +5°C° 0 mm 4 m/s 749 mmHg 92%
23:00 +4°C° 0 mm 4 m/s 749 mmHg 93%
Mostrar mais